Showing default

COSMOS 2458 (GLONASS), 36113

Orbit data source: Space-Track

COSMOS 2458 (GLONASS), 36113 is a Commonwealth of Independent States-origin payload satellite in MEO that was launched on Mon, 14 Dec 2009 UTC via a PROTON-M/DM-2 launch vehicle from the Tyuratam Missile And Space Complex (TTMTR). Payload-class satellites include a variety of spacecraft equipped with specific instruments for various scientific and technological missions. These include communications satellites like Starlink; space stations such as the ISS; scientific satellites like the Hubble; Earth observation satellites from companies like Planet Labs, Umbra, and HawkEye 360; GPS; miniature CubeSats for education and research; and military/defense satellites.

Loading next visibility...
Identifier
36113, 2009-070C
Orbit
MEO
Country
Flag of CISCIS
Related business
Manufacturer
Resehetnev ISS
Mission
Non-operational Defense Navigation
Bus & Motor
URAGAN, Unknown motor
Mass
1,450 kg wet, ~1,200 kg dry
Launch date (UTC)
2009-12-14 (17 years ago)
Launch vehicle
PROTON-M/DM-2
Launch site
Tyuratam Missile And Space Complex (TTMTR)
Object type
Payload
Rocket body
Debris
Shape & HBR
Cyl + 1 Ant + 2 Pan, 3.9 m
Radar Cross Section
8.467 m², Large (>1 m²)

Expand to show TLE details & history
Last TLE update: 2 days ago

TLE from 2 days ago
0 COSMOS 2458 (GLONASS)
1 36113U 09070C   26171.36859524 -.00000044  00000-0  00000+0 0  9997
2 36113  65.0034  70.7586 0005274 323.8924 211.4871  2.13082111128527
Epoch: 2026-06-20T08:50Z
TLE epoch observation values (Epoch: 2026-06-20T08:50:46.628Z)
Latitude
4.20365°
Longitude
-152.46687°
Altitude
19,143.07 km
Speed
3.951 km/s
True Right ascension
16h 35m 14s
True Declination
4° 11' 48"
Sunlit
Object was in daylight at epoch
Visualization orbit readout
Latitude
Unknown
Longitude
Unknown
Altitude
Unknown
Speed
Unknown
Apparent Right ascension
Unknown
Apparent Declination
Unknown
Sunlit
N/A
Visualization observer readout
Local Sidereal Time
02:14:03
Azimuth
Unknown
Elevation
Unknown
Doppler factor
Unknown
Orbital elements
Apogee altitude
19,144.543 km
Perigee altitude
19,117.636 km
Semi-major axis
25,509.227 km
Eccentricity
0.00053
Inclination
65.0034°
RAAN
70.7586°
Arg. of periapsis
323.8924°
True anomaly
211.45555°
Mean anomaly
211.4871°
Eccentric anomaly
211.47132°
Mean motion
0.53272 °/min
Orbital period
675.78 mins
BSTAR
0
Loading maneuver chart data...
Computing Atmospheric mass density...
Loading historical data...
Loading historical data...
Loading historical data...
Loading historical data...
Loading historical data...
Loading historical data...
Loading historical data...

Documentation

Showing up to 5 results
|